Flight Track Log - Related Links

Times and Time Zones

All times are in EDT time to prevent confusion due to time zone crossing. See the FLG4222 flight status page for this flight to view local times or setup timezone preferences in your user account.

Time Position Orientation Groundspeed Altitude Reporting Facility
EDT Latitude Longitude Course Direction KTS MPH feet Rate Location/Type
Tue 10:16:49 AM 42.1992 -83.3492 184° South 152 175 1,100  Level Cleveland Center
Tue 10:17:38 AM 42.1631 -83.3525 184° South 184 212 2,400 2,000 Climbing Cleveland Center
Tue 10:18:16 AM 42.1339 -83.3503 177° South 200 230 4,000 2,066 Climbing Cleveland Center
Tue 10:18:39 AM 42.1086 -83.3533 185° South 234 269 4,500 2,032 Climbing Cleveland Center
Tue 10:19:18 AM 42.0611 -83.3306 160° South 262 302 6,100 2,866 Climbing Cleveland Center
Tue 10:19:46 AM 42.0469 -83.2856 113° Southeast 283 326 7,700 3,000 Climbing Cleveland Center
Tue 10:20:20 AM 42.0442 -83.2322 94° East 275 316 9,200 1,875 Climbing Cleveland Center
Tue 10:21:22 AM 42.0806 -83.1467 60° Northeast 296 341 10,700 1,694 Climbing Cleveland Center
Tue 10:22:24 AM 42.1344 -83.0147 61° Northeast 335 386 12,700 1,742 Climbing Cleveland Center
Tue 10:23:26 AM 42.1822 -82.9028 60° Northeast 346 398 14,300 1,536 Climbing Cleveland Center
Tue 10:24:29 AM 42.2308 -82.7850 61° Northeast 359 413 15,900 1,488 Climbing Cleveland Center
Tue 10:25:31 AM 42.2814 -82.6619 61° Northeast 375 432 17,400 1,306 Climbing Cleveland Center
Tue 10:26:33 AM 42.3322 -82.5367 61° Northeast 379 436 18,600 1,306 Climbing Cleveland Center
Tue 10:27:35 AM 42.3636 -82.3700 76° East 397 457 20,100 1,258 Climbing Cleveland Center
Tue 10:28:37 AM 42.3583 -82.2181 93° East 403 464 21,200 1,113 Climbing Cleveland Center
Tue 10:29:39 AM 42.3511 -82.0625 94° East 408 470 22,400 1,065 Climbing Cleveland Center
Tue 10:30:41 AM 42.3444 -81.9053 93° East 414 476 23,400 919 Climbing Cleveland Center
Tue 10:31:43 AM 42.3375 -81.7456 93° East 420 483 24,300 774 Climbing Cleveland Center
Tue 10:32:45 AM 42.3297 -81.5853 94° East 423 487 25,000 581 Climbing Cleveland Center
Tue 10:33:47 AM 42.3219 -81.4222 94° East 430 495 25,500 532 Climbing Cleveland Center
Tue 10:34:49 AM 42.3133 -81.2275 93° East 438 504 26,100 581 Climbing Cleveland Center
Tue 10:35:51 AM 42.3047 -81.0614 94° East 438 504 26,700 435 Climbing Cleveland Center
Tue 10:36:53 AM 42.2958 -80.8956 94° East 439 505 27,000 144 Climbing Cleveland Center
Tue 10:37:56 AM 42.2867 -80.7250 94° East 448 516 27,000  Level Cleveland Center
Tue 10:38:58 AM 42.2786 -80.5544 94° East 451 519 27,000  Level Cleveland Center
Tue 10:40:00 AM 42.2681 -80.3789 95° East 461 531 27,000  Level Cleveland Center
Tue 10:41:02 AM 42.2581 -80.2050 94° East 461 531 27,000  Level Cleveland Center
Tue 10:42:04 AM 42.2453 -80.0058 95° East 455 524 27,000  Level Cleveland Center
Tue 10:43:06 AM 42.2372 -79.8639 94° East 449 517 27,000  Level Cleveland Center
Tue 10:44:08 AM 42.2244 -79.6633 95° East 450 518 27,000  Level Cleveland Center
Tue 10:45:10 AM 42.2133 -79.4958 95° East 450 518 27,000  Level Cleveland Center
Tue 10:46:12 AM 42.2022 -79.3283 95° East 451 519 27,000  Level Cleveland Center
Tue 10:47:14 AM 42.1906 -79.1606 95° East 451 519 27,000  Level Cleveland Center
Tue 10:48:16 AM 42.1906 -78.9942 90° East 447 514 27,000  Level Cleveland Center
Tue 10:49:18 AM 42.1947 -78.8019 88° East 448 516 27,000  Level Cleveland Center
Tue 10:50:20 AM 42.1972 -78.6339 89° East 448 516 27,000 -480 Level Cleveland Center
Tue 10:51:23 AM 42.1994 -78.4664 89° East 449 517 26,000 -960 Descending Cleveland Center
Tue 10:52:25 AM 42.2011 -78.3072 89° East 435 501 25,000 -1,065 Descending Cleveland Center
Tue 10:53:27 AM 42.2042 -78.1214 89° East 419 482 23,800 -1,065 Descending Cleveland Center
Tue 10:54:29 AM 42.2064 -77.9692 89° East 413 475 22,800 -968 Descending Cleveland Center
Tue 10:55:31 AM 42.2075 -77.8144 89° East 415 478 21,800 -1,065 Descending Cleveland Center
Tue 10:56:33 AM 42.2094 -77.6581 89° East 420 483 20,600 -1,355 Descending Cleveland Center
Tue 10:57:35 AM 42.2097 -77.5011 90° East 423 487 19,000 -1,790 Descending Cleveland Center
Tue 10:58:37 AM 42.2108 -77.3281 89° East 391 450 16,900 -1,887 Descending Cleveland Center
Tue 10:59:39 AM 42.2119 -77.1908 89° East 374 430 15,100 -1,794 Descending Cleveland Center
Tue 11:00:14 AM 42.2103 -77.1094 92° East 376 433 14,000 -1,832 Descending New York Center
Tue 11:01:14 AM 42.2108 -76.9806 90° East 356 410 12,200 -1,664 Descending New York Center
Tue 11:02:13 AM 42.2106 -76.8658 90° East 335 386 10,700 -1,319 Descending New York Center
Tue 11:02:45 AM 42.2117 -76.8214 88° East 305 351 10,200 -1,021 Descending Cleveland Center
Tue 11:03:47 AM 42.1983 -76.6872 98° East 304 350 9,100 -532 Descending Cleveland Center
Tue 11:04:49 AM 42.1864 -76.5767 98° East 300 345 9,100  Level Cleveland Center
Tue 11:05:51 AM 42.1708 -76.4672 101° East 298 343 9,100 -581 Level Cleveland Center
Tue 11:06:53 AM 42.1550 -76.3519 100° East 299 344 7,900 -1,452 Descending Cleveland Center
Tue 11:07:55 AM 42.1392 -76.2481 102° East 287 330 6,100 -1,286 Descending Cleveland Center
Tue 11:09:13 AM 42.1192 -76.1247 102° East 266 306 4,900 -783 Descending New York Center
Tue 11:10:13 AM 42.1103 -76.0458 99° East 235 270 4,300 -645 Descending New York Center
Tue 11:11:14 AM 42.1192 -75.9822 79° East 199 229 3,600 -600 Descending New York Center
Tue 11:12:13 AM 42.1400 -75.9364 58° Northeast 159 183 3,100 -655 Descending New York Center
Tue 11:13:13 AM 42.1708 -75.9472 345° North 97 112 2,300 -600 Descending New York Center
Tue 11:14:13 AM 42.1975 -75.9519 353° North 97 112 1,900 -400 Descending New York Center

Login

Don't have an account? Register now (free) for customized features, flight alerts, and more!